Tracking 19575 objects as of 19-Feb-2019
HD Live streaming from Space Station
objects crossing your sky now

COSMOS 1244

Track COSMOS 1244 now!
10-day predictions
COSMOS 1244 is classified as:


NORAD ID: 12297
Int'l Code: 1981-013A
Perigee: 965.5 km
Apogee: 1,012.2 km
Inclination: 82.9 °
Period: 104.7 minutes
Semi major axis: 7359 km
RCS: 2.3625 m2 (large)
Launch date: February 12, 1981
Source: Commonwealth of Independent States (former USSR) (CIS)
Launch site: PLESETSK MISSILE AND SPACE COMPLEX (PKMTR)
aabbcc
Your satellite tracking list
Your tracking list is empty




NASA's NSSDC Master Catalog

Two Line Element Set (TLE):
1 12297U 81013A   19049.77243257  .00000052  00000-0  37722-4 0  9996
2 12297  82.9494 265.1341 0031698  96.7545 312.4010 13.74993961551806
Source of the keplerian elements: AFSPC